Time,TemperatureF,DewpointF,PressureIn,WindDirection,WindDirectionDegrees,WindSpeedMPH,WindSpeedGustMPH,Humidity,HourlyPrecipIn,Conditions,Clouds,dailyrainin,SoftwareType,DateUTC
2013-05-08 00:00:00,55.8,52.6,29.52,SW,225,0.4,0.4,89,0.00,,,0.00,WUHU216HW,2013-05-08 04:00:00,
2013-05-08 00:01:00,55.8,52.6,29.52,SW,225,0.4,0.4,89,0.00,,,0.00,WUHU216HW,2013-05-08 04:01:00,
2013-05-08 00:06:00,55.8,52.6,29.52,SW,225,0.4,0.4,89,0.00,,,0.00,WUHU216HW,2013-05-08 04:06:00,
2013-05-08 00:30:00,55.8,53.2,29.54,NE,45,0.4,0.4,91,0.00,,,0.00,WUHU216HW,2013-05-08 04:30:00,
2013-05-08 00:35:00,55.8,53.2,29.54,NE,45,0.4,0.4,91,0.00,,,0.00,WUHU216HW,2013-05-08 04:35:00,
2013-05-08 01:00:00,55.3,52.7,29.52,NE,45,0.4,0.4,91,0.00,,,0.00,WUHU216HW,2013-05-08 05:00:00,
2013-05-08 01:05:00,55.3,52.7,29.52,NE,45,0.4,0.4,91,0.00,,,0.00,WUHU216HW,2013-05-08 05:05:00,
2013-05-08 01:30:00,54.9,52.3,29.52,NE,45,0.0,0.0,91,0.00,,,0.00,WUHU216HW,2013-05-08 05:30:00,
2013-05-08 01:35:00,54.9,52.3,29.52,NE,45,0.0,0.0,91,0.00,,,0.00,WUHU216HW,2013-05-08 05:35:00,
2013-05-08 01:59:00,54.7,52.1,29.51,NE,45,0.0,0.0,91,0.00,,,0.00,WUHU216HW,2013-05-08 05:59:00,
2013-05-08 02:04:00,54.7,52.1,29.51,NE,45,0.0,0.0,91,0.00,,,0.00,WUHU216HW,2013-05-08 06:04:00,
2013-05-08 02:30:00,54.2,51.8,29.51,NE,45,0.0,0.0,92,0.00,,,0.00,WUHU216HW,2013-05-08 06:30:00,
2013-05-08 02:34:00,54.2,51.8,29.51,NE,45,0.0,0.0,92,0.00,,,0.00,WUHU216HW,2013-05-08 06:34:00,
2013-05-08 02:59:00,53.6,51.3,29.51,NNW,338,0.0,0.0,92,0.00,,,0.00,WUHU216HW,2013-05-08 06:59:00,
2013-05-08 03:04:00,53.6,51.3,29.51,NNW,338,0.0,0.0,92,0.00,,,0.00,WUHU216HW,2013-05-08 07:04:00,
2013-05-08 03:30:00,53.5,51.1,29.51,NNW,338,0.0,0.0,92,0.00,,,0.00,WUHU216HW,2013-05-08 07:30:00,
2013-05-08 03:34:00,53.5,51.1,29.51,NNW,338,0.0,0.0,92,0.00,,,0.00,WUHU216HW,2013-05-08 07:34:00,
2013-05-08 03:59:00,52.9,50.6,29.52,NNW,338,0.0,0.0,92,0.00,,,0.00,WUHU216HW,2013-05-08 07:59:00,
2013-05-08 04:04:00,52.9,50.6,29.52,NNW,338,0.0,0.0,92,0.00,,,0.00,WUHU216HW,2013-05-08 08:04:00,
2013-05-08 04:30:00,53.1,50.8,29.52,NNW,338,0.0,0.0,92,0.00,,,0.00,WUHU216HW,2013-05-08 08:30:00,
2013-05-08 04:34:00,53.1,50.8,29.52,NNW,338,0.0,0.0,92,0.00,,,0.00,WUHU216HW,2013-05-08 08:34:00,
2013-05-08 04:59:00,53.1,50.8,29.52,WNW,293,0.0,0.0,92,0.00,,,0.00,WUHU216HW,2013-05-08 08:59:00,
2013-05-08 05:04:00,53.1,50.8,29.52,WNW,293,0.0,0.0,92,0.00,,,0.00,WUHU216HW,2013-05-08 09:04:00,
2013-05-08 05:30:00,52.9,50.6,29.53,NE,45,0.0,0.0,92,0.00,,,0.00,WUHU216HW,2013-05-08 09:30:00,
2013-05-08 05:35:00,52.9,50.6,29.53,NE,45,0.0,0.0,92,0.00,,,0.00,WUHU216HW,2013-05-08 09:35:00,
2013-05-08 05:59:00,52.6,50.2,29.53,NW,315,1.1,1.1,92,0.00,,,0.00,WUHU216HW,2013-05-08 09:59:00,
2013-05-08 06:04:00,52.6,50.2,29.53,NW,315,1.1,1.1,92,0.00,,,0.00,WUHU216HW,2013-05-08 10:04:00,
2013-05-08 06:30:00,52.6,50.2,29.53,ESE,113,0.0,0.0,92,0.00,,,0.00,WUHU216HW,2013-05-08 10:30:00,
2013-05-08 06:34:00,52.6,50.2,29.53,ESE,113,0.0,0.0,92,0.00,,,0.00,WUHU216HW,2013-05-08 10:34:00,
2013-05-08 06:59:00,52.7,50.4,29.54,South,180,0.0,0.0,92,0.00,,,0.00,WUHU216HW,2013-05-08 10:59:00,
2013-05-08 07:04:00,52.7,50.4,29.54,South,180,0.0,0.0,92,0.00,,,0.00,WUHU216HW,2013-05-08 11:04:00,
2013-05-08 07:30:00,53.5,51.1,29.55,SSE,158,0.4,0.4,92,0.00,,,0.00,WUHU216HW,2013-05-08 11:30:00,
2013-05-08 07:34:00,53.5,51.1,29.55,SSE,158,0.4,0.4,92,0.00,,,0.00,WUHU216HW,2013-05-08 11:34:00,
2013-05-08 07:59:00,54.7,52.4,29.56,WSW,248,0.2,0.2,92,0.00,,,0.00,WUHU216HW,2013-05-08 11:59:00,
2013-05-08 08:04:00,54.7,52.4,29.56,WSW,248,0.2,0.2,92,0.00,,,0.00,WUHU216HW,2013-05-08 12:04:00,
2013-05-08 08:30:00,56.0,53.6,29.57,SSW,203,0.9,0.9,92,0.00,,,0.00,WUHU216HW,2013-05-08 12:30:00,
2013-05-08 08:35:00,56.0,53.6,29.57,SSW,203,0.9,0.9,92,0.00,,,0.00,WUHU216HW,2013-05-08 12:35:00,
2013-05-08 08:59:00,57.1,54.7,29.57,SSW,203,0.0,0.0,92,0.00,,,0.00,WUHU216HW,2013-05-08 12:59:00,
2013-05-08 09:00:00,57.1,54.7,29.57,SSW,203,0.0,0.0,92,0.00,,,0.00,WUHU216HW,2013-05-08 13:00:00,
2013-05-08 09:04:00,57.1,54.7,29.57,SSW,203,0.0,0.0,92,0.00,,,0.00,WUHU216HW,2013-05-08 13:04:00,
2013-05-08 09:30:00,59.0,56.4,29.57,NNW,338,0.0,0.0,91,0.00,,,0.00,WUHU216HW,2013-05-08 13:30:00,
2013-05-08 09:35:00,59.0,56.4,29.57,NNW,338,0.0,0.0,91,0.00,,,0.00,WUHU216HW,2013-05-08 13:35:00,
2013-05-08 09:59:00,62.3,58.4,29.56,ENE,68,0.7,0.7,87,0.00,,,0.00,WUHU216HW,2013-05-08 13:59:00,
2013-05-08 10:04:00,62.3,58.4,29.56,ENE,68,0.7,0.7,87,0.00,,,0.00,WUHU216HW,2013-05-08 14:04:00,
2013-05-08 10:30:00,62.3,56.0,29.56,SSE,158,1.3,1.3,80,0.00,,,0.00,WUHU216HW,2013-05-08 14:30:00,
2013-05-08 10:34:00,62.3,56.0,29.56,SSE,158,1.3,1.3,80,0.00,,,0.00,WUHU216HW,2013-05-08 14:34:00,
2013-05-08 10:59:00,63.5,57.2,29.56,SSW,203,1.3,1.3,80,0.00,,,0.00,WUHU216HW,2013-05-08 14:59:00,
2013-05-08 11:04:00,63.5,57.2,29.56,SSW,203,1.3,1.3,80,0.00,,,0.00,WUHU216HW,2013-05-08 15:04:00,
2013-05-08 11:30:00,65.2,57.8,29.55,ENE,68,0.4,0.4,77,0.00,,,0.00,WUHU216HW,2013-05-08 15:30:00,
2013-05-08 11:34:00,65.2,57.8,29.55,ENE,68,0.4,0.4,77,0.00,,,0.00,WUHU216HW,2013-05-08 15:34:00,
2013-05-08 12:00:00,65.2,57.4,29.55,ESE,113,1.1,1.1,76,0.00,,,0.00,WUHU216HW,2013-05-08 16:00:00,
2013-05-08 12:05:00,65.2,57.4,29.55,ESE,113,1.1,1.1,76,0.00,,,0.00,WUHU216HW,2013-05-08 16:05:00,
2013-05-08 12:30:00,66.8,58.2,29.54,ESE,113,0.4,0.4,74,0.00,,,0.00,WUHU216HW,2013-05-08 16:30:00,
2013-05-08 12:35:00,66.8,58.2,29.54,ESE,113,0.4,0.4,74,0.00,,,0.00,WUHU216HW,2013-05-08 16:35:00,
2013-05-08 13:00:00,65.2,55.9,29.53,SSE,158,1.1,1.1,72,0.00,,,0.00,WUHU216HW,2013-05-08 17:00:00,
2013-05-08 13:05:00,65.2,55.9,29.53,SSE,158,1.1,1.1,72,0.00,,,0.00,WUHU216HW,2013-05-08 17:05:00,
2013-05-08 13:30:00,69.1,58.5,29.52,SE,135,1.1,1.1,69,0.00,,,0.00,WUHU216HW,2013-05-08 17:30:00,
2013-05-08 13:35:00,69.1,58.5,29.52,SE,135,1.1,1.1,69,0.00,,,0.00,WUHU216HW,2013-05-08 17:35:00,
2013-05-08 14:00:00,67.3,57.6,29.51,South,180,2.0,2.0,71,0.00,,,0.00,WUHU216HW,2013-05-08 18:00:00,
2013-05-08 14:05:00,67.3,57.6,29.51,South,180,2.0,2.0,71,0.00,,,0.00,WUHU216HW,2013-05-08 18:05:00,
2013-05-08 14:30:00,69.7,60.2,29.50,WSW,248,1.8,1.8,72,0.00,,,0.00,WUHU216HW,2013-05-08 18:30:00,
2013-05-08 14:35:00,69.7,60.2,29.50,WSW,248,1.8,1.8,72,0.00,,,0.00,WUHU216HW,2013-05-08 18:35:00,
2013-05-08 15:00:00,72.5,60.5,29.49,ESE,113,2.9,2.9,66,0.00,,,0.00,WUHU216HW,2013-05-08 19:00:00,
2013-05-08 15:05:00,72.5,60.5,29.49,ESE,113,2.9,2.9,66,0.00,,,0.00,WUHU216HW,2013-05-08 19:05:00,
2013-05-08 15:30:00,71.1,57.9,29.48,East,90,2.5,2.5,63,0.00,,,0.00,WUHU216HW,2013-05-08 19:30:00,
2013-05-08 15:35:00,71.1,57.9,29.48,East,90,2.5,2.5,63,0.00,,,0.00,WUHU216HW,2013-05-08 19:35:00,
2013-05-08 15:59:00,63.2,55.1,29.50,SSE,158,2.2,2.2,75,0.00,,,0.00,WUHU216HW,2013-05-08 19:59:00,
2013-05-08 16:04:00,63.2,55.1,29.50,SSE,158,2.2,2.2,75,0.00,,,0.00,WUHU216HW,2013-05-08 20:04:00,
2013-05-08 16:30:00,58.7,52.9,29.51,WNW,293,3.1,3.1,81,0.00,,,0.00,WUHU216HW,2013-05-08 20:30:00,
2013-05-08 16:34:00,58.7,52.9,29.51,WNW,293,3.1,3.1,81,0.00,,,0.00,WUHU216HW,2013-05-08 20:34:00,
2013-05-08 16:59:00,57.2,52.1,29.51,SSE,158,1.1,1.1,83,0.00,,,0.00,WUHU216HW,2013-05-08 20:59:00,
2013-05-08 17:04:00,57.2,52.1,29.51,SSE,158,1.1,1.1,83,0.00,,,0.00,WUHU216HW,2013-05-08 21:04:00,
2013-05-08 17:30:00,56.9,52.0,29.52,SSE,158,0.9,0.9,84,0.00,,,0.00,WUHU216HW,2013-05-08 21:30:00,
2013-05-08 17:34:00,56.9,52.0,29.52,SSE,158,0.9,0.9,84,0.00,,,0.00,WUHU216HW,2013-05-08 21:34:00,
2013-05-08 17:59:00,57.2,52.7,29.50,SW,225,0.0,0.0,85,0.00,,,0.00,WUHU216HW,2013-05-08 21:59:00,
2013-05-08 18:04:00,57.2,52.7,29.50,SW,225,0.0,0.0,85,0.00,,,0.00,WUHU216HW,2013-05-08 22:04:00,
2013-05-08 18:30:00,58.5,54.4,29.50,SSE,158,0.0,0.0,86,0.00,,,0.00,WUHU216HW,2013-05-08 22:30:00,
2013-05-08 18:35:00,58.5,54.4,29.50,SSE,158,0.0,0.0,86,0.00,,,0.00,WUHU216HW,2013-05-08 22:35:00,
2013-05-08 19:59:00,58.9,54.4,29.50,SE,135,0.0,0.0,85,0.00,,,0.00,WUHU216HW,2013-05-08 23:59:00,
2013-05-08 20:04:00,58.9,54.4,29.50,SE,135,0.0,0.0,85,0.00,,,0.00,WUHU216HW,2013-05-09 00:04:00,
2013-05-08 20:30:00,57.6,53.7,29.51,SE,135,0.2,0.2,87,0.00,,,0.00,WUHU216HW,2013-05-09 00:30:00,
2013-05-08 20:35:00,57.6,53.7,29.51,SE,135,0.2,0.2,87,0.00,,,0.00,WUHU216HW,2013-05-09 00:35:00,
2013-05-08 20:59:00,56.3,52.2,29.51,SE,135,0.0,0.0,86,0.00,,,0.00,WUHU216HW,2013-05-09 00:59:00,
2013-05-08 21:04:00,56.3,52.2,29.51,SE,135,0.0,0.0,86,0.00,,,0.00,WUHU216HW,2013-05-09 01:04:00,
2013-05-08 21:30:00,55.3,51.8,29.53,SE,135,0.0,0.0,88,0.00,,,0.00,WUHU216HW,2013-05-09 01:30:00,
2013-05-08 21:35:00,55.3,51.8,29.53,SE,135,0.0,0.0,88,0.00,,,0.00,WUHU216HW,2013-05-09 01:35:00,
2013-05-08 21:59:00,54.7,51.2,29.53,SE,135,0.0,0.0,88,0.00,,,0.00,WUHU216HW,2013-05-09 01:59:00,
2013-05-08 22:04:00,54.7,51.2,29.53,SE,135,0.0,0.0,88,0.00,,,0.00,WUHU216HW,2013-05-09 02:04:00,
2013-05-08 22:30:00,53.8,50.3,29.54,SSE,158,0.7,0.7,88,0.00,,,0.00,WUHU216HW,2013-05-09 02:30:00,
2013-05-08 22:35:00,53.8,50.3,29.54,SSE,158,0.7,0.7,88,0.00,,,0.00,WUHU216HW,2013-05-09 02:35:00,
2013-05-08 22:59:00,52.6,49.4,29.54,SSE,158,0.4,0.4,89,0.00,,,0.00,WUHU216HW,2013-05-09 02:59:00,
2013-05-08 23:04:00,52.6,49.4,29.54,SSE,158,0.4,0.4,89,0.00,,,0.00,WUHU216HW,2013-05-09 03:04:00,
2013-05-08 23:29:00,52.4,49.2,29.53,SSE,158,0.0,0.0,89,0.00,,,0.00,WUHU216HW,2013-05-09 03:29:00,
2013-05-08 23:34:00,52.4,49.2,29.53,SSE,158,0.0,0.0,89,0.00,,,0.00,WUHU216HW,2013-05-09 03:34:00,
2013-05-08 23:59:00,51.5,48.3,29.53,SSE,158,0.0,0.0,89,0.00,,,0.00,WUHU216HW,2013-05-09 03:59:00,